Vertical_Velocity
0 -1 -0 2 2 -13 1 14 -4 2 -2 1 -2 -3 -2 0 1 0 1 0 1 2 -0 1 -0 1 0 -0 -1 -0 -1 -1 -1 -1 -1 -1 -2 -2 -2 -3 -2 -2 -2
3 0 1 -6 4 21 -15 -1 9 -0 -1 4 3 3 0 -1 1 3 1 -0 1 2 -0 -0 -0 1 1 -0 -1 0 -0 -1 -0 -0 -1 -1 -1 -0 -1 -3 -3 -2 -2
-1 -3 -4 -0 2 -1 -0 12 -4 16 0 3 2 -1 -2 3 1 -1 -2 -1 -2 0 1 0 0 1 2 1 1 0 -0 1 1 1 -1 -1 -0 -2 0 0 -1 -2 -3
-4 1 5 -5 -5 7 5 46 4 21 0 -4 6 5 5 -1 2 3 3 1 1 0 0 -0 -0 1 2 1 1 -0 0 1 1 1 1 -0 -2 -2 -3 1 -2 -2 -2
-1 -8 -7 2 -5 4 0 14 17 26 5 -5 4 6 4 0 6 3 0 2 0 0 1 1 0 -1 -0 1 -1 -1 -0 0 0 1 0 -1 -2 -2 -2 2 -0 -1 -1
0 3 3 12 -12 6 9 2 -25 -0 16 -11 1 4 5 3 -1 -3 -2 1 0 1 1 1 0 1 -1 -1 -0 -1 -1 -1 -0 0 0 -0 -1 -1 -2 -2 -1 -3 -1
-3 -1 -2 -10 -2 -11 -6 20 -11 -18 -12 -6 5 2 4 6 5 4 1 0 0 1 2 2 0 0 1 -1 -1 -1 -2 -1 -0 -1 -1 -1 0 -1 -1 -2 -2 -4 3
4 -2 -3 2 0 -0 -10 -1 27 -30 12 1 5 3 6 4 2 4 3 0 3 4 3 2 1 -0 -0 -0 -1 -2 -2 -1 -1 -1 -2 -2 -0 -1 -1 -3 -2 -3 -6
5 -1 5 6 0 8 -1 -8 -11 3 -7 13 -1 1 5 -0 1 2 1 -1 1 0 1 1 1 1 -0 0 0 -2 -2 -2 -2 -1 -1 -2 -3 -1 -1 -2 -2 -4 -7
2 3 -0 2 -5 -1 1 11 -2 -3 -1 26 -7 1 3 1 3 1 3 2 -2 -2 1 1 1 1 1 1 -2 -0 -1 -3 -2 -4 -1 -1 -3 -3 -3 -3 -3 -3 -4
-1 5 -4 4 -4 18 8 7 4 -6 -3 4 -12 -1 3 0 4 1 -0 2 -0 -0 -2 1 1 1 3 2 -3 -1 0 -3 -2 -2 -3 -1 -3 -3 -2 -4 -2 -2 -6
1 0 3 1 1 -4 5 -4 3 -8 1 13 -2 -5 5 3 2 0 3 -1 -2 5 -6 3 5 -7 2 -3 5 -1 2 -5 -2 -3 -2 -2 -3 -3 -1 -3 -2 -4 -3
2 0 -2 -10 7 5 -3 -4 7 9 -12 13 -0 5 1 -2 4 4 3 -1 1 -8 3 6 -1 1 -3 2 -5 2 2 -3 -5 0 -2 -1 -2 -2 -2 -3 -1 -1 -2
-4 0 4 -0 9 9 6 5 1 4 13 12 -0 -1 1 -3 2 3 5 3 2 -8 6 1 1 -1 1 -3 0 -0 1 -3 -2 -1 -1 -1 -2 -2 -1 -4 -2 -3 -1
-5 1 0 3 1 8 3 12 11 5 -7 26 1 -4 4 -2 -2 3 6 -1 0 -3 0 -1 1 2 -1 -2 1 2 -6 0 -3 -1 -1 -0 -2 -2 -4 -1 -2 -1 -4
-2 -2 0 2 -2 0 -0 6 1 -7 13 23 -2 -14 7 2 -4 -2 12 3 -4 -1 -0 1 1 2 0 -1 2 -5 -1 0 -2 -1 -2 -1 -1 -1 -2 -0 -3 -5 -2
1 -3 1 4 3 0 0 -1 7 12 19 15 -12 -6 3 7 2 -2 4 -3 3 2 1 1 1 2 0 2 -2 -0 -2 -0 -0 -0 -1 -1 -3 -2 -4 -2 -3 -2 -3
5 -2 -4 -2 3 3 6 12 6 1 -13 11 -9 10 11 3 -3 7 7 9 2 5 -1 1 2 0 3 1 0 -2 -2 2 1 -1 -1 -0 -1 -1 -2 -2 1 -2 -1
-1 -4 -5 0 3 -4 7 9 0 1 12 11 11 12 9 8 -3 15 6 1 5 1 0 4 5 1 -2 1 2 1 -0 -1 -4 0 -2 -0 -0 -1 0 -1 -3 -4 -3
2 -4 -13 -0 2 -4 2 -1 7 6 10 15 5 10 13 -2 15 20 8 -2 1 5 2 4 1 2 2 -1 1 -0 2 -1 1 -5 -1 -3 -0 -1 -1 -4 -5 -1 2
-1 -1 -2 6 1 -2 8 -0 -7 2 -0 5 12 22 -0 12 4 19 -5 12 1 4 4 0 5 1 -0 -2 -1 0 -1 0 -2 -1 -3 -3 -2 -2 -6 -3 -4 -2 -0
-2 4 -3 2 2 0 9 4 8 11 3 22 18 18 5 12 -5 11 6 -6 -2 -2 2 2 5 -2 -3 1 -1 -1 -1 0 -3 -3 -2 -1 -1 -6 -3 -2 -4 -1 -3
1 1 -4 5 -1 -3 8 12 8 12 32 18 14 11 3 9 10 6 0 1 -3 -3 5 3 -1 0 0 2 -0 -2 -2 1 -4 -5 -3 -1 -3 -1 1 -5 -1 4 1
-0 -1 -2 4 3 4 7 7 -0 11 10 -5 -0 2 12 0 -1 -6 -2 1 2 3 4 -2 -1 1 3 -2 0 -5 -1 -1 -1 -0 -1 -4 -3 -1 -4 -2 -1 -5 -7
-5 -0 2 3 5 -2 -2 9 13 4 0 11 4 2 4 4 -3 -4 -0 1 6 0 4 -1 2 2 -3 -1 -2 -2 0 1 -3 -2 -2 -4 2 -0 1 1 -3 -5 0
3 4 3 8 7 6 9 33 25 22 18 6 -2 3 3 1 -3 -8 3 1 4 2 -0 1 1 -3 -2 -2 -1 -1 -2 -2 -1 -8 -5 2 -2 -4 -3 -1 -8 -0 -1
Height
3051 3055 3058 3064 3070 3074 3083 3083 3091 3095 3100 3104 3109 3114 3118 3123 3127 3131 3135 3138 3142 3146 3148 3151 3153 3154 3156 3157 3157 3158 3158 3159 3159 3159 3159 3158 3157 3156 3154 3151 3148 3146 3143
3042 3045 3049 3054 3059 3064 3065 3074 3082 3089 3095 3099 3105 3111 3115 3118 3122 3127 3130 3134 3138 3142 3145 3147 3150 3152 3153 3154 3155 3156 3156 3156 3156 3156 3156 3156 3156 3153 3151 3148 3144 3142 3139
3032 3035 3039 3044 3051 3056 3060 3065 3075 3081 3089 3094 3097 3102 3107 3112 3116 3121 3126 3131 3134 3138 3141 3144 3147 3149 3151 3152 3153 3153 3153 3153 3153 3153 3153 3152 3151 3150 3148 3145 3142 3139 3135
3023 3028 3033 3037 3041 3048 3056 3053 3067 3072 3081 3087 3092 3097 3103 3108 3114 3119 3122 3127 3130 3134 3138 3141 3143 3146 3147 3149 3150 3151 3151 3151 3151 3150 3150 3149 3148 3147 3146 3143 3140 3136 3131
3014 3018 3022 3028 3036 3041 3047 3050 3057 3061 3074 3082 3087 3092 3097 3103 3109 3113 3117 3122 3126 3130 3134 3137 3140 3142 3144 3146 3147 3147 3147 3148 3148 3147 3146 3145 3144 3142 3141 3139 3137 3133 3128
3004 3011 3015 3022 3027 3035 3039 3044 3047 3053 3068 3076 3082 3085 3091 3097 3101 3106 3112 3117 3122 3126 3130 3133 3136 3138 3140 3141 3142 3143 3144 3143 3143 3142 3141 3140 3138 3136 3134 3132 3132 3130 3126
2995 3001 3006 3011 3018 3022 3029 3034 3040 3047 3062 3070 3076 3080 3085 3092 3098 3103 3108 3113 3117 3122 3126 3129 3132 3134 3136 3137 3138 3139 3139 3138 3138 3137 3136 3135 3133 3130 3127 3124 3121 3120 3121
2986 2989 2996 3002 3008 3015 3021 3029 3032 3045 3055 3064 3070 3075 3081 3086 3092 3098 3103 3109 3113 3118 3121 3124 3127 3130 3132 3133 3134 3134 3134 3134 3133 3132 3131 3129 3127 3124 3120 3116 3112 3108 3107
2974 2979 2986 2994 2998 3005 3012 3020 3026 3036 3048 3058 3064 3069 3075 3080 3086 3092 3097 3102 3107 3112 3116 3119 3122 3124 3126 3128 3128 3129 3129 3129 3128 3127 3125 3123 3120 3117 3113 3109 3105 3099 3094
2968 2971 2976 2982 2990 2998 3006 3014 3023 3028 3040 3047 3057 3064 3070 3076 3082 3087 3092 3097 3101 3106 3110 3114 3117 3119 3121 3122 3123 3123 3124 3123 3122 3121 3119 3117 3114 3110 3106 3102 3097 3092 3087
2958 2962 2967 2973 2982 2989 2995 3003 3012 3021 3030 3038 3050 3057 3063 3069 3075 3081 3086 3091 3096 3101 3105 3109 3112 3115 3116 3117 3118 3118 3117 3118 3117 3115 3113 3110 3107 3103 3099 3095 3090 3085 3079
2953 2956 2962 2968 2973 2979 2987 2994 3003 3013 3023 3031 3040 3051 3058 3063 3069 3074 3080 3086 3092 3095 3100 3103 3106 3109 3110 3112 3112 3112 3112 3111 3110 3109 3106 3103 3099 3096 3092 3087 3082 3078 3073
2947 2949 2954 2957 2962 2969 2976 2985 2994 3005 3016 3025 3033 3041 3050 3056 3063 3069 3074 3080 3085 3090 3093 3097 3101 3103 3105 3106 3107 3107 3106 3105 3104 3102 3099 3096 3092 3088 3084 3079 3074 3070 3064
2940 2940 2945 2950 2956 2962 2969 2976 2987 2998 3008 3017 3024 3033 3043 3049 3057 3063 3069 3074 3080 3084 3088 3092 3095 3097 3099 3101 3101 3101 3101 3099 3098 3096 3092 3088 3084 3080 3075 3071 3065 3060 3054
2937 2935 2938 2942 2948 2955 2962 2970 2979 2988 2998 3007 3016 3026 3036 3043 3051 3058 3064 3069 3075 3079 3083 3087 3089 3091 3093 3094 3096 3095 3095 3093 3090 3088 3085 3080 3076 3071 3066 3061 3056 3050 3044
2934 2932 2933 2937 2942 2948 2955 2961 2968 2978 2990 2999 3007 3017 3028 3036 3044 3051 3058 3063 3069 3073 3077 3081 3084 3085 3087 3088 3090 3090 3088 3086 3084 3080 3076 3072 3067 3062 3057 3051 3046 3041 3035
2930 2931 2929 2933 2937 2943 2949 2955 2961 2972 2980 2988 2999 3012 3023 3029 3036 3045 3053 3058 3063 3068 3072 3076 3078 3080 3081 3083 3084 3083 3082 3079 3076 3072 3068 3063 3058 3053 3047 3042 3038 3032 3027
2927 2928 2928 2929 2932 2937 2943 2949 2957 2965 2971 2981 2992 3006 3016 3023 3031 3039 3046 3053 3058 3062 3067 3070 3073 3074 3076 3077 3076 3076 3073 3071 3068 3064 3059 3055 3050 3044 3038 3033 3028 3025 3019
2925 2924 2925 2927 2929 2933 2939 2946 2950 2955 2963 2975 2988 2999 3009 3018 3024 3033 3039 3046 3054 3058 3062 3064 3066 3068 3069 3069 3069 3067 3066 3063 3059 3055 3050 3046 3041 3035 3030 3026 3021 3014 3008
2922 2922 2922 2924 2927 2931 2936 2942 2946 2951 2960 2972 2982 2992 3002 3012 3020 3028 3033 3044 3049 3053 3056 3059 3060 3061 3062 3062 3062 3059 3057 3054 3050 3046 3042 3036 3032 3027 3023 3016 3010 3005 3000
2921 2920 2921 2922 2925 2930 2935 2939 2945 2950 2958 2969 2979 2988 2997 3008 3017 3024 3033 3038 3044 3047 3051 3053 3054 3055 3055 3054 3054 3052 3048 3046 3042 3038 3033 3029 3025 3020 3014 3007 3002 2998 2991
2918 2918 2919 2921 2923 2927 2932 2937 2942 2946 2956 2966 2975 2984 2995 3005 3012 3022 3027 3034 3038 3041 3045 3046 3047 3047 3048 3048 3047 3044 3040 3037 3033 3031 3026 3022 3017 3010 3006 3000 2996 2989 2982
2916 2918 2918 2920 2923 2926 2929 2934 2941 2948 2957 2965 2974 2984 2994 3003 3009 3017 3024 3029 3032 3034 3038 3040 3040 3042 3042 3041 3039 3037 3033 3029 3025 3022 3018 3013 3008 3003 2998 2993 2988 2981 2976
2915 2917 2919 2920 2923 2926 2929 2936 2945 2952 2962 2971 2979 2987 2995 3000 3007 3015 3020 3024 3029 3031 3032 3034 3036 3036 3035 3034 3031 3029 3026 3022 3018 3015 3010 3005 3001 2995 2990 2984 2979 2972 2967
2917 2919 2921 2923 2926 2930 2934 2940 2949 2957 2964 2971 2979 2986 2993 3000 3006 3013 3019 3021 3023 3025 3027 3029 3030 3030 3028 3027 3024 3023 3019 3015 3012 3008 3004 2999 2994 2988 2983 2978 2973 2967 2960
2919 2921 2924 2927 2930 2934 2940 2946 2954 2962 2968 2974 2980 2986 2992 2999 3004 3010 3014 3017 3019 3021 3024 3026 3025 3023 3022 3021 3019 3016 3013 3008 3004 2999 2996 2992 2986 2981 2976 2970 2964 2961 2951